RA07254 UUML-UUDD

Flight info

Callsign RA07254
Flight time 0h 23m
Altitude 3000
Route RAGSE ALGOI
Aircraft EC30/L-VGD/A

Departure

Time 2026-04-30 19:56
Airport Severka Airfield (UUML)

Arrival

Time 2026-04-30 20:19
Airport Domodedovo International Airport (UUDD)
Time Latitude Longitude Altitude Speed Heading
2026-04-30 19:39 55.20696 38.67448 429 ft 0 kts 180°
2026-04-30 19:44 55.20693 38.67450 435 ft 2 kts 59°
2026-04-30 19:45 55.20679 38.67494 438 ft 14 kts 168°
2026-04-30 19:45 55.20551 38.67529 437 ft 23 kts 142°
2026-04-30 19:45 55.20541 38.67567 447 ft 7 kts 211°
2026-04-30 19:45 55.20522 38.67544 428 ft 0 kts 231°
2026-04-30 19:47 55.20521 38.67542 428 ft 0 kts 234°
2026-04-30 19:54 55.20520 38.67539 430 ft 3 kts 225°
2026-04-30 19:54 55.20484 38.67536 515 ft 6 kts 222°
2026-04-30 19:54 55.20487 38.67497 691 ft 6 kts 239°
2026-04-30 19:54 55.20528 38.67496 858 ft 8 kts 262°
2026-04-30 19:55 55.20592 38.67581 921 ft 14 kts 265°
2026-04-30 19:55 55.20613 38.67744 1042 ft 15 kts 353°
2026-04-30 19:55 55.20533 38.67853 1171 ft 12 kts 58°
2026-04-30 19:55 55.20490 38.67818 1239 ft 5 kts 158°
2026-04-30 19:56 55.20316 38.67787 1282 ft 48 kts 192°
2026-04-30 19:56 55.19953 38.67478 1303 ft 69 kts 232°
2026-04-30 19:56 55.19868 38.66538 1177 ft 90 kts 285°
2026-04-30 19:56 55.20187 38.65515 967 ft 103 kts 308°
2026-04-30 19:57 55.20706 38.64559 713 ft 110 kts 316°
2026-04-30 19:57 55.21259 38.63638 617 ft 106 kts 313°
2026-04-30 19:57 55.21709 38.62642 734 ft 103 kts 296°
2026-04-30 19:57 55.21920 38.61457 917 ft 99 kts 279°
2026-04-30 19:58 55.21981 38.60301 1169 ft 94 kts 269°
2026-04-30 19:58 55.22004 38.59168 1415 ft 92 kts 275°
2026-04-30 19:58 55.22087 38.58061 1675 ft 92 kts 280°
2026-04-30 19:58 55.22218 38.56981 1944 ft 90 kts 285°
2026-04-30 19:59 55.22360 38.55917 2211 ft 90 kts 283°
2026-04-30 19:59 55.22457 38.54840 2492 ft 89 kts 278°
2026-04-30 19:59 55.22543 38.52771 3063 ft 85 kts 277°
2026-04-30 20:00 55.22602 38.51755 3149 ft 82 kts 289°
2026-04-30 20:00 55.22819 38.50862 3237 ft 81 kts 300°
2026-04-30 20:00 55.23081 38.49945 3211 ft 87 kts 301°
2026-04-30 20:00 55.23362 38.48994 3196 ft 89 kts 301°
2026-04-30 20:01 55.23917 38.46984 3142 ft 94 kts 298°
2026-04-30 20:01 55.24178 38.45917 3078 ft 97 kts 296°
2026-04-30 20:01 55.24417 38.44795 3002 ft 99 kts 292°
2026-04-30 20:02 55.24790 38.42422 2960 ft 104 kts 285°
2026-04-30 20:02 55.24910 38.41155 2940 ft 107 kts 280°
2026-04-30 20:03 55.25033 38.38448 2868 ft 115 kts 273°
2026-04-30 20:03 55.24964 38.37025 2837 ft 120 kts 260°
2026-04-30 20:03 55.24599 38.35702 2810 ft 124 kts 235°
2026-04-30 20:03 55.24055 38.34524 2772 ft 124 kts 232°
2026-04-30 20:04 55.23532 38.33313 2725 ft 125 kts 235°
2026-04-30 20:04 55.23076 38.32007 2637 ft 126 kts 246°
2026-04-30 20:04 55.22835 38.31056 2571 ft 127 kts 249°
2026-04-30 20:05 55.22113 38.28402 2794 ft 113 kts 248°
2026-04-30 20:05 55.21798 38.27165 2966 ft 111 kts 246°
2026-04-30 20:05 55.21042 38.24729 3177 ft 118 kts 240°
2026-04-30 20:06 55.20563 38.23525 3198 ft 123 kts 232°
2026-04-30 20:06 55.19985 38.22406 3219 ft 125 kts 226°
2026-04-30 20:06 55.19460 38.21217 3239 ft 122 kts 249°
2026-04-30 20:06 55.19399 38.19821 3271 ft 119 kts 282°
2026-04-30 20:07 55.19693 38.18488 3288 ft 118 kts 301°
2026-04-30 20:07 55.20188 38.17368 3315 ft 117 kts 312°
2026-04-30 20:07 55.21263 38.15225 3358 ft 116 kts 310°
2026-04-30 20:08 55.21776 38.14137 3399 ft 116 kts 310°
2026-04-30 20:08 55.22300 38.13049 3415 ft 118 kts 311°
2026-04-30 20:08 55.22844 38.11942 3414 ft 119 kts 311°
2026-04-30 20:08 55.23384 38.10860 3420 ft 119 kts 310°
2026-04-30 20:09 55.23880 38.09731 3484 ft 116 kts 307°
2026-04-30 20:09 55.24397 38.08683 3621 ft 111 kts 318°
2026-04-30 20:09 55.25625 38.06946 3702 ft 116 kts 323°
2026-04-30 20:10 55.26989 38.05209 3425 ft 124 kts 327°
2026-04-30 20:10 55.27711 38.04368 3222 ft 124 kts 326°
2026-04-30 20:10 55.28410 38.03491 3063 ft 122 kts 324°
2026-04-30 20:11 55.29721 38.01850 2976 ft 113 kts 327°
2026-04-30 20:11 55.30374 38.01081 2891 ft 114 kts 325°
2026-04-30 20:12 55.32383 37.98539 2694 ft 112 kts 325°
2026-04-30 20:12 55.33035 37.97748 2477 ft 116 kts 326°
2026-04-30 20:12 55.33497 37.96629 2250 ft 117 kts 283°
2026-04-30 20:13 55.33555 37.95389 2350 ft 68 kts 285°
2026-04-30 20:13 55.33550 37.95012 2258 ft 13 kts 306°
2026-04-30 20:13 55.33498 37.95093 2243 ft 15 kts 316°
2026-04-30 20:13 55.33391 37.95273 2428 ft 32 kts 285°
2026-04-30 20:14 55.33309 37.95425 2682 ft 6 kts 343°
2026-04-30 20:14 55.33282 37.95434 2855 ft 2 kts
2026-04-30 20:14 55.33274 37.95432 2953 ft 1 kts
2026-04-30 20:14 55.33280 37.95430 3031 ft 2 kts
2026-04-30 20:15 55.33303 37.95444 3106 ft 5 kts 18°
2026-04-30 20:15 55.33339 37.95498 3174 ft 9 kts 32°
2026-04-30 20:15 55.33375 37.95620 3255 ft 14 kts 60°
2026-04-30 20:15 55.33381 37.95808 3244 ft 16 kts 66°
2026-04-30 20:16 55.33402 37.96048 3205 ft 31 kts 60°
2026-04-30 20:16 55.33565 37.96619 3156 ft 71 kts 31°
2026-04-30 20:16 55.34070 37.96954 3019 ft 89 kts 348°
2026-04-30 20:16 55.34674 37.96482 2478 ft 106 kts 322°
2026-04-30 20:17 55.35310 37.95716 1888 ft 113 kts 323°
2026-04-30 20:17 55.35832 37.94729 1499 ft 110 kts 318°
2026-04-30 20:17 55.36444 37.93923 1126 ft 108 kts 328°
2026-04-30 20:17 55.37054 37.93243 981 ft 100 kts 327°
2026-04-30 20:18 55.37634 37.92584 903 ft 99 kts 327°
2026-04-30 20:18 55.38207 37.91906 811 ft 100 kts 324°
2026-04-30 20:18 55.38776 37.91195 701 ft 101 kts 326°
2026-04-30 20:18 55.39348 37.90538 619 ft 93 kts 328°
2026-04-30 20:19 55.39815 37.90015 576 ft 60 kts 324°
2026-04-30 20:19 55.39968 37.89818 563 ft 26 kts 330°
2026-04-30 20:19 55.40089 37.89677 565 ft 10 kts 313°
2026-04-30 20:19 55.40221 37.89556 594 ft 32 kts 315°
2026-04-30 20:20 55.40429 37.89303 630 ft 41 kts 326°
2026-04-30 20:20 55.40673 37.88988 619 ft 35 kts 337°
2026-04-30 20:20 55.40810 37.88841 587 ft 15 kts 347°
2026-04-30 20:20 55.40883 37.88790 590 ft 11 kts 350°
2026-04-30 20:21 55.40961 37.88768 595 ft 12 kts 359°
2026-04-30 20:21 55.41055 37.88788 614 ft 15 kts
2026-04-30 20:21 55.41160 37.88801 643 ft 20 kts
2026-04-30 20:21 55.41332 37.88775 691 ft 33 kts 339°
2026-04-30 20:22 55.41575 37.88553 626 ft 41 kts 334°
2026-04-30 20:22 55.41703 37.88353 583 ft 9 kts 264°
2026-04-30 20:22 55.41683 37.88285 601 ft 6 kts 47°
2026-04-30 20:22 55.41677 37.88291 583 ft 4 kts 56°